Arlington, WA

9:11 PM PDT on May 22, 2018 (GMT -0700)
Arlington Municipal

Weather History for KAWO - June, 2013

Change the Weather History Date:

Thursday, June 13, 2013

  Actual Average Record
Temperature  
Mean Temperature 58 °F -  
Max Temperature 66 °F 64 °F 89 °F (2002)
Min Temperature 51 °F 44 °F 39 °F (2015)
Degree Days  
Heating Degree Days 6    
Growing Degree Days 8 (Base 50)    
Moisture  
Dew Point 48 °F    
Average Humidity 71    
Maximum Humidity 88    
Minimum Humidity 46    
Precipitation  
Precipitation 0.00 in - - ()
Sea Level Pressure  
Sea Level Pressure 30.19 in    
Wind  
Wind Speed 3 mph (NW)    
Max Wind Speed 14 mph    
Max Gust Speed 18 mph    
Visibility 10 miles    
Events      
Averages and records for this station are not official NWS values.
T = Trace of Precipitation, MM = Missing Value Source: NWS Daily Summary

Daily Weather History Graph

Daily Weather History Graph

Search for Another Location

Airport or City:

Astronomy

Jun. 13, 2013 Rise Set
Actual Time 5:07 AM PDT 9:09 PM PDT
Civil Twilight 4:26 AM PDT 9:51 PM PDT
Nautical Twilight 3:28 AM PDT 10:49 PM PDT
Astronomical Twilight 1:50 AM PDT 12:28 AM PDT
Moon 10:08 AM PDT (6/13) 11:57 PM PDT (6/13)
Length of Visible Light 17h 24m
Length of Day
16h 02m
Waxing Crescent, 22% of the Moon is Illuminated
Jun 13
Waxing Crescent
Jun 16
First Quarter
Jun 23
Full
Jun 29
Last Quarter
Jul 8
New

Hourly Weather History & Observations

Time (PDT) Temp. Dew Point Humidity Pressure Visibility Wind Dir Wind Speed Gust Speed Precip Events Conditions
12:15 AM 53.6 °F 46.4 °F 77% 30.17 in 10.0 mi South 4.6 mph - N/A   Unknown
12:35 AM 53.6 °F 46.4 °F 77% 30.16 in 10.0 mi South 3.5 mph - N/A   Unknown
12:55 AM 53.6 °F 46.4 °F 77% 30.17 in 10.0 mi Calm Calm - N/A   Unknown
1:15 AM 53.6 °F 46.4 °F 77% 30.17 in 10.0 mi Calm Calm - N/A   Unknown
1:35 AM 53.6 °F 46.4 °F 77% 30.17 in 10.0 mi SE 4.6 mph - N/A   Unknown
1:55 AM 53.6 °F 48.2 °F 82% 30.17 in 10.0 mi SE 4.6 mph - N/A   Unknown
2:15 AM 53.6 °F 48.2 °F 82% 30.16 in 10.0 mi Calm Calm - N/A   Unknown
2:35 AM 53.6 °F 48.2 °F 82% 30.17 in 10.0 mi Calm Calm - N/A   Unknown
2:55 AM 53.6 °F 48.2 °F 82% 30.17 in 9.0 mi Calm Calm - N/A   Unknown
3:15 AM 53.6 °F 50.0 °F 88% 30.17 in 10.0 mi Calm Calm - N/A   Unknown
3:35 AM 53.6 °F 48.2 °F 82% 30.17 in 10.0 mi Calm Calm - N/A   Unknown
3:55 AM 53.6 °F 48.2 °F 82% 30.17 in 10.0 mi Calm Calm - N/A   Unknown
4:15 AM 51.8 °F 48.2 °F 88% 30.17 in 10.0 mi Calm Calm - N/A   Unknown
4:35 AM 51.8 °F 48.2 °F 88% 30.17 in 10.0 mi Calm Calm - N/A   Unknown
4:55 AM 51.8 °F 48.2 °F 88% 30.17 in 10.0 mi Calm Calm - N/A   Unknown
5:15 AM 51.8 °F 48.2 °F 88% 30.17 in 10.0 mi Calm Calm - N/A   Unknown
5:35 AM 53.6 °F 48.2 °F 82% 30.17 in 10.0 mi Calm Calm - N/A   Unknown
5:55 AM 51.8 °F 48.2 °F 88% 30.18 in 10.0 mi Calm Calm - N/A   Unknown
6:15 AM 51.8 °F 48.2 °F 88% 30.18 in 10.0 mi Calm Calm - N/A   Unknown
6:35 AM 53.6 °F 50.0 °F 88% 30.18 in 10.0 mi Calm Calm - N/A   Unknown
6:55 AM 53.6 °F 50.0 °F 88% 30.18 in 10.0 mi Calm Calm - N/A   Unknown
7:15 AM 53.6 °F 50.0 °F 88% 30.18 in 10.0 mi Calm Calm - N/A   Unknown
7:35 AM 53.6 °F 50.0 °F 88% 30.18 in 10.0 mi Calm Calm - N/A   Unknown
7:55 AM 53.6 °F 48.2 °F 82% 30.18 in 10.0 mi Calm Calm - N/A   Unknown
8:15 AM 55.4 °F 48.2 °F 77% 30.19 in 10.0 mi Calm Calm - N/A   Unknown
8:35 AM 55.4 °F 48.2 °F 77% 30.19 in 10.0 mi Calm Calm - N/A   Unknown
8:55 AM 55.4 °F 48.2 °F 77% 30.19 in 10.0 mi NW 3.5 mph - N/A   Unknown
9:15 AM 55.4 °F 48.2 °F 77% 30.19 in 10.0 mi Calm Calm - N/A   Unknown
9:35 AM 55.4 °F 48.2 °F 77% 30.19 in 10.0 mi Calm Calm - N/A   Unknown
9:55 AM 57.2 °F 48.2 °F 72% 30.19 in 10.0 mi WNW 4.6 mph - N/A   Unknown
10:15 AM 57.2 °F 48.2 °F 72% 30.19 in 10.0 mi NW 3.5 mph - N/A   Unknown
10:35 AM 57.2 °F 48.2 °F 72% 30.19 in 10.0 mi WNW 3.5 mph - N/A   Unknown
10:55 AM 59.0 °F 48.2 °F 67% 30.19 in 10.0 mi NNW 4.6 mph - N/A   Unknown
11:15 AM 59.0 °F 48.2 °F 67% 30.19 in 10.0 mi WNW 3.5 mph - N/A   Unknown
11:35 AM 60.8 °F 48.2 °F 63% 30.19 in 10.0 mi NW 4.6 mph - N/A   Unknown
11:55 AM 60.8 °F 48.2 °F 63% 30.19 in 10.0 mi Calm Calm - N/A   Unknown
12:15 PM 60.8 °F 48.2 °F 63% 30.19 in 10.0 mi West 6.9 mph - N/A   Unknown
12:35 PM 60.8 °F 48.2 °F 63% 30.19 in 10.0 mi NW 5.8 mph - N/A   Unknown
12:55 PM 60.8 °F 48.2 °F 63% 30.19 in 10.0 mi NW 6.9 mph - N/A   Unknown
1:15 PM 62.6 °F 48.2 °F 59% 30.20 in 10.0 mi NW 10.4 mph - N/A   Unknown
1:35 PM 62.6 °F 48.2 °F 59% 30.20 in 10.0 mi WNW 8.1 mph - N/A   Unknown
1:55 PM 62.6 °F 48.2 °F 59% 30.20 in 10.0 mi NW 8.1 mph - N/A   Unknown
2:15 PM 64.4 °F 46.4 °F 52% 30.20 in 10.0 mi North 9.2 mph - N/A   Unknown
2:35 PM 62.6 °F 46.4 °F 55% 30.20 in 10.0 mi NNW 6.9 mph - N/A   Unknown
2:55 PM 64.4 °F 48.2 °F 56% 30.19 in 10.0 mi NW 5.8 mph - N/A   Unknown
3:15 PM 64.4 °F 48.2 °F 56% 30.19 in 10.0 mi NNW 6.9 mph - N/A   Unknown
3:35 PM 66.2 °F 46.4 °F 49% 30.19 in 10.0 mi West 6.9 mph - N/A   Unknown
3:55 PM 66.2 °F 46.4 °F 49% 30.19 in 10.0 mi WNW 10.4 mph - N/A   Unknown
4:15 PM 66.2 °F 44.6 °F 46% 30.19 in 10.0 mi NNW 8.1 mph - N/A   Unknown
4:35 PM 66.2 °F 44.6 °F 46% 30.19 in 10.0 mi WNW 8.1 mph - N/A   Unknown
4:55 PM 64.4 °F 44.6 °F 49% 30.19 in 10.0 mi North 6.9 mph - N/A   Unknown
5:15 PM 64.4 °F 46.4 °F 52% 30.19 in 10.0 mi NW 3.5 mph - N/A   Unknown
5:35 PM 66.2 °F 48.2 °F 52% 30.19 in 10.0 mi NW 12.7 mph 17.3 mph N/A   Unknown
5:55 PM 66.2 °F 48.2 °F 52% 30.19 in 10.0 mi West 13.8 mph 18.4 mph N/A   Unknown
6:15 PM 64.4 °F 48.2 °F 56% 30.20 in 10.0 mi WNW 11.5 mph - N/A   Unknown
6:35 PM 62.6 °F 46.4 °F 55% 30.20 in 10.0 mi NW 11.5 mph - N/A   Unknown
6:55 PM 62.6 °F 46.4 °F 55% 30.20 in 10.0 mi WNW 8.1 mph - N/A   Unknown
7:15 PM 62.6 °F 48.2 °F 59% 30.21 in 10.0 mi WNW 13.8 mph - N/A   Unknown
7:35 PM 60.8 °F 48.2 °F 63% 30.21 in 10.0 mi WNW 10.4 mph - N/A   Unknown
7:55 PM 60.8 °F 48.2 °F 63% 30.21 in 10.0 mi WNW 9.2 mph - N/A   Unknown
8:15 PM 57.2 °F 46.4 °F 67% 30.22 in 10.0 mi WNW 6.9 mph - N/A   Unknown
8:35 PM 57.2 °F 46.4 °F 67% 30.22 in 10.0 mi Calm Calm - N/A   Unknown
8:55 PM 57.2 °F 46.4 °F 67% 30.22 in 10.0 mi NW 6.9 mph - N/A   Unknown
9:15 PM 55.4 °F 46.4 °F 72% 30.23 in 10.0 mi West 3.5 mph - N/A   Unknown
9:35 PM 55.4 °F 46.4 °F 72% 30.23 in 10.0 mi WNW 5.8 mph - N/A   Unknown
9:55 PM 55.4 °F 46.4 °F 72% 30.24 in 10.0 mi NW 6.9 mph - N/A   Unknown
10:15 PM 53.6 °F 46.4 °F 77% 30.24 in 10.0 mi WNW 4.6 mph - N/A   Unknown
10:35 PM 53.6 °F 46.4 °F 77% 30.24 in 10.0 mi NW 4.6 mph - N/A   Unknown
10:55 PM 53.6 °F 46.4 °F 77% 30.25 in 10.0 mi North 3.5 mph - N/A   Unknown
11:15 PM 53.6 °F 46.4 °F 77% 30.25 in 10.0 mi North 3.5 mph - N/A   Unknown
11:35 PM 53.6 °F 46.4 °F 77% 30.25 in 10.0 mi Calm Calm - N/A   Unknown
11:55 PM 53.6 °F 46.4 °F 77% 30.25 in 10.0 mi North - - N/A   Unknown